SPAINSAT NG I

Last updated on Tue Sep 22 2026 00:03:16 GMT+0000 (Coordinated Universal Time)

1 62852U 25021A 26264.20974278 .00000000 00000+0 00000+0 0 9990 2 62852 0.0197 159.4892 0000356 325.4958 339.6071 1.00271867 4959
UTC large
Height (km)
Speed (km/s)
/
Latitude / Longitude
Inclination (degrees)
Orbital Period (minutes)
Azimuth
Elevation
Range (km)
Doppler Factor

Next 0 passes for location: London (51.5072 / 0.1276)

No passes found over London.
SPAINSAT NG I